Time,TemperatureF,DewpointF,PressureIn,WindDirection,WindDirectionDegrees,WindSpeedMPH,WindSpeedGustMPH,Humidity,HourlyPrecipIn,Conditions,Clouds,dailyrainin,SoftwareType,DateUTC
2013-05-12 00:00:00,62.2,60.7,29.70,WNW,295,4.0,0.0,95,0.00,,,0.00,WeatherTracker,2013-05-12 04:00:00,
2013-05-12 00:05:00,62.2,60.7,29.69,WSW,250,4.0,0.0,95,0.00,,,0.00,WeatherTracker,2013-05-12 04:05:00,
2013-05-12 00:10:00,62.2,60.7,29.69,WSW,240,4.0,0.0,95,0.00,,,0.00,WeatherTracker,2013-05-12 04:10:00,
2013-05-12 00:15:00,62.2,60.7,29.69,WSW,257,1.0,0.0,95,0.00,,,0.00,WeatherTracker,2013-05-12 04:15:00,
2013-05-12 00:20:00,62.2,60.7,29.69,SW,228,4.0,0.0,95,0.00,,,0.00,WeatherTracker,2013-05-12 04:20:00,
2013-05-12 00:25:00,62.2,60.7,29.69,WSW,255,4.0,0.0,95,0.00,,,0.00,WeatherTracker,2013-05-12 04:25:00,
2013-05-12 00:30:00,62.1,60.6,29.68,West,266,3.0,0.0,95,0.00,,,0.00,WeatherTracker,2013-05-12 04:30:00,
2013-05-12 00:35:00,62.1,60.6,29.69,West,269,1.0,0.0,95,0.00,,,0.00,WeatherTracker,2013-05-12 04:35:00,
2013-05-12 00:40:00,62.1,60.6,29.68,West,265,2.0,0.0,95,0.00,,,0.00,WeatherTracker,2013-05-12 04:40:00,
2013-05-12 00:50:00,62.1,60.6,29.68,SW,236,2.0,0.0,95,0.00,,,0.00,WeatherTracker,2013-05-12 04:50:00,
2013-05-12 01:00:00,62.0,60.5,29.68,WNW,285,1.0,0.0,95,0.00,,,0.00,WeatherTracker,2013-05-12 05:00:00,
2013-05-12 01:05:00,62.0,60.5,29.67,WSW,253,2.0,0.0,95,0.00,,,0.00,WeatherTracker,2013-05-12 05:05:00,
2013-05-12 01:10:00,62.0,60.5,29.67,WSW,238,3.0,0.0,95,0.00,,,0.00,WeatherTracker,2013-05-12 05:10:00,
2013-05-12 01:15:00,62.0,60.5,29.67,West,259,0.0,0.0,95,0.00,,,0.00,WeatherTracker,2013-05-12 05:15:00,
2013-05-12 01:20:00,62.0,60.5,29.67,WSW,248,2.0,0.0,95,0.00,,,0.00,WeatherTracker,2013-05-12 05:20:00,
2013-05-12 01:30:00,62.0,60.5,29.66,West,267,4.0,0.0,95,0.00,,,0.00,WeatherTracker,2013-05-12 05:30:00,
2013-05-12 01:35:00,61.9,60.4,29.66,West,263,2.0,0.0,95,0.00,,,0.00,WeatherTracker,2013-05-12 05:35:00,
2013-05-12 01:40:00,61.9,60.4,29.66,WSW,238,5.0,0.0,95,0.00,,,0.00,WeatherTracker,2013-05-12 05:40:00,
2013-05-12 01:50:00,61.8,60.4,29.67,West,265,2.0,0.0,95,0.00,,,0.00,WeatherTracker,2013-05-12 05:50:00,
2013-05-12 01:55:00,61.8,60.4,29.66,NNW,335,0.0,0.0,95,0.00,,,0.00,WeatherTracker,2013-05-12 05:55:00,
2013-05-12 02:05:00,61.8,60.4,29.66,NW,311,3.0,0.0,95,0.00,,,0.00,WeatherTracker,2013-05-12 06:05:00,
2013-05-12 02:10:00,61.8,60.4,29.66,West,263,4.0,0.0,95,0.00,,,0.00,WeatherTracker,2013-05-12 06:10:00,
2013-05-12 02:20:00,61.7,60.0,29.66,WSW,242,4.0,0.0,94,0.00,,,0.00,WeatherTracker,2013-05-12 06:20:00,
2013-05-12 02:25:00,61.7,60.0,29.66,WSW,257,1.0,0.0,94,0.00,,,0.00,WeatherTracker,2013-05-12 06:25:00,
2013-05-12 02:35:00,61.6,59.9,29.67,WNW,286,6.0,0.0,94,0.00,,,0.00,WeatherTracker,2013-05-12 06:35:00,
2013-05-12 02:40:00,61.6,60.2,29.67,SW,219,2.0,0.0,95,0.00,,,0.00,WeatherTracker,2013-05-12 06:40:00,
2013-05-12 02:45:00,61.5,60.1,29.66,WNW,301,2.0,0.0,95,0.00,,,0.00,WeatherTracker,2013-05-12 06:45:00,
2013-05-12 02:55:00,61.4,60.0,29.66,WSW,258,5.0,0.0,95,0.00,,,0.00,WeatherTracker,2013-05-12 06:55:00,
2013-05-12 03:05:00,61.4,59.7,29.67,West,272,3.0,0.0,94,0.00,,,0.00,WeatherTracker,2013-05-12 07:05:00,
2013-05-12 03:10:00,61.4,59.7,29.66,West,263,2.0,0.0,94,0.00,,,0.00,WeatherTracker,2013-05-12 07:10:00,
2013-05-12 03:20:00,61.3,59.9,29.65,NW,318,3.0,0.0,95,0.00,,,0.00,WeatherTracker,2013-05-12 07:20:00,
2013-05-12 03:25:00,61.3,59.9,29.64,West,261,1.0,0.0,95,0.00,,,0.00,WeatherTracker,2013-05-12 07:25:00,
2013-05-12 03:30:00,61.3,59.6,29.65,WNW,288,3.0,0.0,94,0.00,,,0.00,WeatherTracker,2013-05-12 07:30:00,
2013-05-12 03:35:00,61.2,59.8,29.65,WSW,252,5.0,0.0,95,0.00,,,0.00,WeatherTracker,2013-05-12 07:35:00,
2013-05-12 03:40:00,61.2,59.8,29.65,West,269,4.0,0.0,95,0.00,,,0.00,WeatherTracker,2013-05-12 07:40:00,
2013-05-12 03:50:00,61.1,59.7,29.64,West,270,5.0,0.0,95,0.00,,,0.00,WeatherTracker,2013-05-12 07:50:00,
2013-05-12 03:55:00,61.0,59.6,29.63,West,267,1.0,0.0,95,0.00,,,0.00,WeatherTracker,2013-05-12 07:55:00,
2013-05-12 04:05:00,60.9,59.5,29.61,WSW,252,0.0,0.0,95,0.00,,,0.00,WeatherTracker,2013-05-12 08:05:00,
2013-05-12 04:10:00,60.9,59.5,29.61,WSW,252,0.0,0.0,95,0.00,,,0.00,WeatherTracker,2013-05-12 08:10:00,
2013-05-12 04:20:00,60.8,59.4,29.63,West,281,1.0,0.0,95,0.00,,,0.00,WeatherTracker,2013-05-12 08:20:00,
2013-05-12 04:30:00,60.8,59.4,29.64,WNW,290,2.0,0.0,95,0.00,,,0.00,WeatherTracker,2013-05-12 08:30:00,
2013-05-12 04:35:00,60.8,59.4,29.64,SW,233,1.0,0.0,95,0.00,,,0.00,WeatherTracker,2013-05-12 08:35:00,
2013-05-12 04:40:00,60.7,59.3,29.64,WSW,244,2.0,0.0,95,0.00,,,0.00,WeatherTracker,2013-05-12 08:40:00,
2013-05-12 04:50:00,60.7,59.3,29.65,West,281,3.0,0.0,95,0.00,,,0.00,WeatherTracker,2013-05-12 08:50:00,
2013-05-12 05:00:00,60.7,59.6,29.64,WSW,257,4.0,0.0,96,0.00,,,0.00,WeatherTracker,2013-05-12 09:00:00,
2013-05-12 05:10:00,60.6,59.5,29.63,West,281,3.0,0.0,96,0.00,,,0.00,WeatherTracker,2013-05-12 09:10:00,
2013-05-12 05:15:00,60.6,59.5,29.64,West,279,3.0,0.0,96,0.00,,,0.00,WeatherTracker,2013-05-12 09:15:00,
2013-05-12 05:20:00,60.6,59.5,29.64,WSW,253,2.0,0.0,96,0.00,,,0.00,WeatherTracker,2013-05-12 09:20:00,
2013-05-12 05:25:00,60.6,59.5,29.64,West,267,4.0,0.0,96,0.00,,,0.00,WeatherTracker,2013-05-12 09:25:00,
2013-05-12 05:30:00,60.6,59.5,29.64,West,270,3.0,0.0,96,0.00,,,0.00,WeatherTracker,2013-05-12 09:30:00,
2013-05-12 05:35:00,60.5,59.4,29.64,WNW,301,2.0,0.0,96,0.00,,,0.00,WeatherTracker,2013-05-12 09:35:00,
2013-05-12 05:40:00,60.6,59.5,29.64,WSW,252,4.0,0.0,96,0.00,,,0.00,WeatherTracker,2013-05-12 09:40:00,
2013-05-12 05:45:00,60.6,59.5,29.64,WNW,299,4.0,0.0,96,0.00,,,0.00,WeatherTracker,2013-05-12 09:45:00,
2013-05-12 05:55:00,60.6,59.5,29.64,WNW,288,4.0,0.0,96,0.00,,,0.00,WeatherTracker,2013-05-12 09:55:00,
2013-05-12 06:05:00,60.6,59.5,29.64,NW,309,2.0,0.0,96,0.00,,,0.00,WeatherTracker,2013-05-12 10:05:00,
2013-05-12 06:10:00,60.6,59.5,29.65,WSW,254,2.0,0.0,96,0.00,,,0.00,WeatherTracker,2013-05-12 10:10:00,
2013-05-12 06:15:00,60.7,59.6,29.65,WNW,290,3.0,0.0,96,0.00,,,0.00,WeatherTracker,2013-05-12 10:15:00,
2013-05-12 06:20:00,60.7,59.6,29.64,West,267,1.0,0.0,96,0.00,,,0.00,WeatherTracker,2013-05-12 10:20:00,
2013-05-12 06:25:00,60.7,59.6,29.65,West,275,4.0,0.0,96,0.00,,,0.00,WeatherTracker,2013-05-12 10:25:00,
2013-05-12 06:35:00,60.7,59.6,29.64,NW,314,2.0,0.0,96,0.00,,,0.00,WeatherTracker,2013-05-12 10:35:00,
2013-05-12 06:40:00,60.7,59.6,29.64,West,260,2.0,0.0,96,0.00,,,0.00,WeatherTracker,2013-05-12 10:40:00,
2013-05-12 06:45:00,60.8,59.7,29.64,West,265,3.0,0.0,96,0.00,,,0.00,WeatherTracker,2013-05-12 10:45:00,
2013-05-12 06:50:00,60.8,59.7,29.64,West,264,3.0,0.0,96,0.00,,,0.00,WeatherTracker,2013-05-12 10:50:00,
2013-05-12 06:55:00,60.8,59.7,29.63,WSW,248,2.0,0.0,96,0.00,,,0.00,WeatherTracker,2013-05-12 10:55:00,
2013-05-12 07:00:00,60.8,59.7,29.63,WSW,247,2.0,0.0,96,0.00,,,0.00,WeatherTracker,2013-05-12 11:00:00,
2013-05-12 07:05:00,60.8,59.7,29.63,WSW,255,2.0,0.0,96,0.00,,,0.00,WeatherTracker,2013-05-12 11:05:00,
2013-05-12 07:15:00,60.9,59.8,29.64,WNW,298,3.0,0.0,96,0.00,,,0.00,WeatherTracker,2013-05-12 11:15:00,
2013-05-12 07:20:00,60.9,59.8,29.64,WSW,252,4.0,0.0,96,0.00,,,0.00,WeatherTracker,2013-05-12 11:20:00,
2013-05-12 07:30:00,60.9,59.8,29.63,WSW,257,1.0,0.0,96,0.00,,,0.00,WeatherTracker,2013-05-12 11:30:00,
2013-05-12 07:40:00,61.0,59.8,29.64,WNW,284,2.0,0.0,96,0.00,,,0.00,WeatherTracker,2013-05-12 11:40:00,
2013-05-12 07:45:00,61.0,59.8,29.64,West,267,2.0,0.0,96,0.00,,,0.00,WeatherTracker,2013-05-12 11:45:00,
2013-05-12 07:55:00,61.0,59.8,29.63,WSW,252,0.0,0.0,96,0.01,,,0.01,WeatherTracker,2013-05-12 11:55:00,
2013-05-12 08:05:00,60.9,60.0,29.64,WSW,238,2.0,0.0,97,0.01,,,0.01,WeatherTracker,2013-05-12 12:05:00,
2013-05-12 08:15:00,60.9,60.0,29.63,West,273,2.0,0.0,97,0.03,,,0.03,WeatherTracker,2013-05-12 12:15:00,
2013-05-12 08:25:00,61.0,60.1,29.63,WSW,258,2.0,0.0,97,0.04,,,0.04,WeatherTracker,2013-05-12 12:25:00,
2013-05-12 08:30:00,61.0,60.1,29.63,West,277,2.0,0.0,97,0.04,,,0.04,WeatherTracker,2013-05-12 12:30:00,
2013-05-12 08:40:00,61.0,60.1,29.63,WSW,244,3.0,0.0,97,0.07,,,0.07,WeatherTracker,2013-05-12 12:40:00,
2013-05-12 08:45:00,61.0,60.1,29.62,WSW,250,3.0,0.0,97,0.08,,,0.08,WeatherTracker,2013-05-12 12:45:00,
2013-05-12 08:50:00,61.0,60.1,29.62,WSW,250,2.0,0.0,97,0.08,,,0.08,WeatherTracker,2013-05-12 12:50:00,
2013-05-12 08:55:00,61.1,60.2,29.61,WSW,252,0.0,0.0,97,0.07,,,0.08,WeatherTracker,2013-05-12 12:55:00,
2013-05-12 09:00:00,61.2,60.3,29.61,WSW,252,1.0,0.0,97,0.07,,,0.08,WeatherTracker,2013-05-12 13:00:00,
2013-05-12 09:10:00,60.1,58.1,29.62,WSW,257,2.0,0.0,93,0.07,,,0.09,WeatherTracker,2013-05-12 13:10:00,
2013-05-12 09:15:00,59.5,57.2,29.63,NW,307,2.0,0.0,92,0.06,,,0.09,WeatherTracker,2013-05-12 13:15:00,
2013-05-12 09:25:00,58.9,56.6,29.63,NW,317,1.0,0.0,92,0.06,,,0.10,WeatherTracker,2013-05-12 13:25:00,
2013-05-12 09:30:00,58.8,56.5,29.63,NW,317,1.0,0.0,92,0.06,,,0.10,WeatherTracker,2013-05-12 13:30:00,
2013-05-12 09:35:00,58.7,56.7,29.63,NW,321,1.0,0.0,93,0.04,,,0.10,WeatherTracker,2013-05-12 13:35:00,
2013-05-12 09:40:00,58.7,57.0,29.63,WNW,288,1.0,0.0,94,0.04,,,0.11,WeatherTracker,2013-05-12 13:40:00,
2013-05-12 09:45:00,58.6,56.9,29.63,NW,313,3.0,0.0,94,0.04,,,0.12,WeatherTracker,2013-05-12 13:45:00,
2013-05-12 09:50:00,58.6,56.9,29.63,NNW,340,1.0,0.0,94,0.05,,,0.13,WeatherTracker,2013-05-12 13:50:00,
2013-05-12 10:00:00,58.9,57.8,29.62,NE,42,1.0,0.0,96,0.06,,,0.14,WeatherTracker,2013-05-12 14:00:00,
2013-05-12 10:05:00,59.0,57.9,29.61,WNW,296,1.0,0.0,96,0.06,,,0.14,WeatherTracker,2013-05-12 14:05:00,
2013-05-12 10:15:00,59.1,57.7,29.62,NW,309,0.0,0.0,95,0.05,,,0.14,WeatherTracker,2013-05-12 14:15:00,
2013-05-12 10:20:00,59.2,57.8,29.62,NW,311,3.0,0.0,95,0.04,,,0.14,WeatherTracker,2013-05-12 14:20:00,
2013-05-12 10:25:00,59.1,57.4,29.62,NNW,336,1.0,0.0,94,0.04,,,0.14,WeatherTracker,2013-05-12 14:25:00,
2013-05-12 10:30:00,59.2,57.5,29.62,NW,314,1.0,0.0,94,0.04,,,0.14,WeatherTracker,2013-05-12 14:30:00,
2013-05-12 10:40:00,59.5,57.8,29.61,NW,325,2.0,0.0,94,0.03,,,0.14,WeatherTracker,2013-05-12 14:40:00,
2013-05-12 10:45:00,59.5,57.5,29.62,NW,306,3.0,0.0,93,0.02,,,0.14,WeatherTracker,2013-05-12 14:45:00,
2013-05-12 10:55:00,59.9,58.2,29.61,North,5,0.0,0.0,94,0.01,,,0.14,WeatherTracker,2013-05-12 14:55:00,
2013-05-12 11:00:00,60.1,58.1,29.62,NNW,332,0.0,0.0,93,0.00,,,0.14,WeatherTracker,2013-05-12 15:00:00,
2013-05-12 11:05:00,60.5,58.5,29.61,NNW,329,2.0,0.0,93,0.00,,,0.14,WeatherTracker,2013-05-12 15:05:00,
2013-05-12 11:10:00,60.5,58.2,29.61,NW,311,2.0,0.0,92,0.00,,,0.14,WeatherTracker,2013-05-12 15:10:00,
2013-05-12 11:15:00,60.6,58.0,29.61,NW,314,5.0,0.0,91,0.00,,,0.14,WeatherTracker,2013-05-12 15:15:00,
2013-05-12 11:20:00,60.6,57.6,29.61,NW,312,1.0,0.0,90,0.00,,,0.14,WeatherTracker,2013-05-12 15:20:00,
2013-05-12 11:25:00,60.5,57.5,29.61,NW,325,1.0,0.0,90,0.00,,,0.14,WeatherTracker,2013-05-12 15:25:00,
2013-05-12 11:30:00,60.6,57.6,29.61,NW,322,2.0,0.0,90,0.00,,,0.14,WeatherTracker,2013-05-12 15:30:00,
2013-05-12 11:35:00,61.1,58.5,29.61,NNW,327,1.0,0.0,91,0.00,,,0.14,WeatherTracker,2013-05-12 15:35:00,
2013-05-12 11:45:00,61.6,58.3,29.62,WNW,290,2.0,0.0,89,0.00,,,0.14,WeatherTracker,2013-05-12 15:45:00,
2013-05-12 11:50:00,61.9,58.0,29.61,NW,319,3.0,0.0,87,0.00,,,0.14,WeatherTracker,2013-05-12 15:50:00,
2013-05-12 11:55:00,61.9,58.0,29.61,NNW,339,3.0,0.0,87,0.00,,,0.14,WeatherTracker,2013-05-12 15:55:00,
2013-05-12 12:05:00,62.2,57.6,29.61,NW,319,3.0,0.0,85,0.00,,,0.14,WeatherTracker,2013-05-12 16:05:00,
2013-05-12 12:15:00,63.0,56.4,29.61,NNW,328,8.0,0.0,79,0.00,,,0.14,WeatherTracker,2013-05-12 16:15:00,
2013-05-12 12:20:00,63.3,57.0,29.61,WNW,285,3.0,0.0,80,0.00,,,0.14,WeatherTracker,2013-05-12 16:20:00,
2013-05-12 12:25:00,64.4,57.0,29.60,NW,325,1.0,0.0,77,0.00,,,0.14,WeatherTracker,2013-05-12 16:25:00,
2013-05-12 12:35:00,65.4,56.1,29.60,NNW,327,1.0,0.0,72,0.01,,,0.15,WeatherTracker,2013-05-12 16:35:00,
2013-05-12 12:45:00,66.2,55.3,29.61,NW,311,6.0,0.0,68,0.01,,,0.15,WeatherTracker,2013-05-12 16:45:00,
2013-05-12 12:50:00,65.9,55.0,29.60,WSW,248,0.0,0.0,68,0.01,,,0.15,WeatherTracker,2013-05-12 16:50:00,
2013-05-12 12:55:00,66.2,55.3,29.61,West,275,2.0,0.0,68,0.01,,,0.15,WeatherTracker,2013-05-12 16:55:00,
2013-05-12 13:05:00,66.8,55.1,29.61,WNW,293,2.0,0.0,66,0.01,,,0.15,WeatherTracker,2013-05-12 17:05:00,
2013-05-12 13:15:00,66.5,54.4,29.61,North,355,6.0,0.0,65,0.01,,,0.15,WeatherTracker,2013-05-12 17:15:00,
2013-05-12 13:25:00,66.7,54.1,29.60,WNW,282,6.0,0.0,64,0.01,,,0.15,WeatherTracker,2013-05-12 17:25:00,
2013-05-12 13:35:00,67.1,53.6,29.60,NW,323,6.0,0.0,62,0.00,,,0.15,WeatherTracker,2013-05-12 17:35:00,
2013-05-12 13:40:00,67.0,54.0,29.60,NW,313,2.0,0.0,63,0.00,,,0.15,WeatherTracker,2013-05-12 17:40:00,
2013-05-12 13:45:00,67.2,53.7,29.60,WNW,290,6.0,0.0,62,0.00,,,0.15,WeatherTracker,2013-05-12 17:45:00,
2013-05-12 13:50:00,67.4,54.4,29.60,NNW,333,3.0,0.0,63,0.00,,,0.15,WeatherTracker,2013-05-12 17:50:00,
2013-05-12 14:00:00,68.7,53.3,29.59,West,275,7.0,0.0,58,0.00,,,0.15,WeatherTracker,2013-05-12 18:00:00,
2013-05-12 14:05:00,68.8,52.9,29.59,WNW,291,4.0,0.0,57,0.00,,,0.15,WeatherTracker,2013-05-12 18:05:00,
2013-05-12 14:10:00,69.1,53.7,29.58,NNW,327,2.0,0.0,58,0.00,,,0.15,WeatherTracker,2013-05-12 18:10:00,
2013-05-12 14:20:00,70.8,52.3,29.58,NNW,346,9.0,0.0,52,0.00,,,0.15,WeatherTracker,2013-05-12 18:20:00,
2013-05-12 14:25:00,70.7,51.1,29.58,NW,317,7.0,0.0,50,0.00,,,0.15,WeatherTracker,2013-05-12 18:25:00,
2013-05-12 14:30:00,69.9,50.4,29.58,WSW,239,3.0,0.0,50,0.00,,,0.15,WeatherTracker,2013-05-12 18:30:00,
2013-05-12 14:35:00,69.8,50.8,29.58,WNW,292,3.0,0.0,51,0.00,,,0.15,WeatherTracker,2013-05-12 18:35:00,
2013-05-12 14:45:00,70.5,51.0,29.57,WNW,287,9.0,0.0,50,0.00,,,0.15,WeatherTracker,2013-05-12 18:45:00,
2013-05-12 14:50:00,70.2,50.1,29.57,NW,316,10.0,0.0,49,0.00,,,0.15,WeatherTracker,2013-05-12 18:50:00,
2013-05-12 15:00:00,69.9,50.4,29.57,WNW,288,5.0,0.0,50,0.00,,,0.15,WeatherTracker,2013-05-12 19:00:00,
2013-05-12 15:05:00,69.8,50.3,29.57,NW,318,8.0,0.0,50,0.00,,,0.15,WeatherTracker,2013-05-12 19:05:00,
2013-05-12 15:10:00,69.9,49.3,29.57,SW,230,10.0,0.0,48,0.00,,,0.15,WeatherTracker,2013-05-12 19:10:00,
2013-05-12 15:15:00,69.9,49.3,29.57,NW,306,8.0,0.0,48,0.00,,,0.15,WeatherTracker,2013-05-12 19:15:00,
2013-05-12 15:20:00,70.1,49.5,29.57,NW,314,6.0,0.0,48,0.00,,,0.15,WeatherTracker,2013-05-12 19:20:00,
2013-05-12 15:25:00,70.6,48.8,29.57,West,263,5.0,0.0,46,0.00,,,0.15,WeatherTracker,2013-05-12 19:25:00,
2013-05-12 15:30:00,70.7,48.3,29.57,WNW,282,4.0,0.0,45,0.00,,,0.15,WeatherTracker,2013-05-12 19:30:00,
2013-05-12 15:40:00,70.9,46.7,29.57,West,281,4.0,0.0,42,0.00,,,0.15,WeatherTracker,2013-05-12 19:40:00,
2013-05-12 15:45:00,70.7,47.1,29.57,WNW,298,5.0,0.0,43,0.00,,,0.15,WeatherTracker,2013-05-12 19:45:00,
2013-05-12 15:55:00,70.7,47.7,29.57,WNW,295,10.0,0.0,44,0.00,,,0.15,WeatherTracker,2013-05-12 19:55:00,
2013-05-12 16:00:00,70.5,48.1,29.57,SW,215,2.0,0.0,45,0.00,,,0.15,WeatherTracker,2013-05-12 20:00:00,
2013-05-12 16:05:00,70.4,48.0,29.57,NW,325,4.0,0.0,45,0.00,,,0.15,WeatherTracker,2013-05-12 20:05:00,
2013-05-12 16:10:00,70.2,48.4,29.57,NNW,340,2.0,0.0,46,0.00,,,0.15,WeatherTracker,2013-05-12 20:10:00,
2013-05-12 16:20:00,69.6,48.5,29.57,NW,304,3.0,0.0,47,0.00,,,0.15,WeatherTracker,2013-05-12 20:20:00,
2013-05-12 16:25:00,69.2,48.7,29.58,NW,313,6.0,0.0,48,0.00,,,0.15,WeatherTracker,2013-05-12 20:25:00,
2013-05-12 16:35:00,67.8,49.0,29.58,WNW,300,2.0,0.0,51,0.00,,,0.15,WeatherTracker,2013-05-12 20:35:00,
2013-05-12 16:40:00,67.3,49.6,29.59,NNW,336,9.0,0.0,53,0.00,,,0.15,WeatherTracker,2013-05-12 20:40:00,
2013-05-12 16:50:00,66.8,50.1,29.60,NNE,15,4.0,0.0,55,0.00,,,0.15,WeatherTracker,2013-05-12 20:50:00,
2013-05-12 16:55:00,66.5,48.8,29.60,NW,321,9.0,0.0,53,0.00,,,0.15,WeatherTracker,2013-05-12 20:55:00,
2013-05-12 17:05:00,65.5,48.9,29.61,NNE,25,6.0,0.0,55,0.00,,,0.15,WeatherTracker,2013-05-12 21:05:00,
2013-05-12 17:10:00,65.0,47.4,29.62,WNW,285,6.0,0.0,53,0.00,,,0.15,WeatherTracker,2013-05-12 21:10:00,
2013-05-12 17:20:00,64.1,46.6,29.63,NNE,30,2.0,0.0,53,0.00,,,0.15,WeatherTracker,2013-05-12 21:20:00,
2013-05-12 17:25:00,63.8,46.3,29.63,WNW,297,3.0,0.0,53,0.00,,,0.15,WeatherTracker,2013-05-12 21:25:00,
2013-05-12 17:35:00,63.5,45.6,29.63,NW,309,7.0,0.0,52,0.00,,,0.15,WeatherTracker,2013-05-12 21:35:00,
2013-05-12 17:40:00,63.1,43.6,29.63,NW,324,7.0,0.0,49,0.00,,,0.15,WeatherTracker,2013-05-12 21:40:00,
2013-05-12 17:45:00,62.5,42.0,29.63,SSW,203,4.0,0.0,47,0.00,,,0.15,WeatherTracker,2013-05-12 21:45:00,
2013-05-12 17:55:00,61.3,41.4,29.64,West,273,6.0,0.0,48,0.00,,,0.15,WeatherTracker,2013-05-12 21:55:00,
2013-05-12 18:05:00,60.8,41.0,29.65,WNW,301,6.0,0.0,48,0.00,,,0.15,WeatherTracker,2013-05-12 22:05:00,
2013-05-12 18:15:00,60.5,41.2,29.65,ENE,67,2.0,0.0,49,0.00,,,0.15,WeatherTracker,2013-05-12 22:15:00,
2013-05-12 18:25:00,60.5,40.7,29.65,North,9,4.0,0.0,48,0.00,,,0.15,WeatherTracker,2013-05-12 22:25:00,
2013-05-12 18:30:00,60.4,41.2,29.66,NNW,330,2.0,0.0,49,0.00,,,0.15,WeatherTracker,2013-05-12 22:30:00,
2013-05-12 18:40:00,60.4,40.6,29.66,NW,321,7.0,0.0,48,0.00,,,0.15,WeatherTracker,2013-05-12 22:40:00,
2013-05-12 18:45:00,60.3,40.5,29.67,NNW,329,4.0,0.0,48,0.00,,,0.15,WeatherTracker,2013-05-12 22:45:00,
2013-05-12 18:55:00,59.8,40.6,29.68,NE,50,3.0,0.0,49,0.00,,,0.15,WeatherTracker,2013-05-12 22:55:00,
2013-05-12 19:05:00,59.5,40.3,29.68,NNE,18,0.0,0.0,49,0.00,,,0.15,WeatherTracker,2013-05-12 23:05:00,
2013-05-12 19:15:00,59.2,39.0,29.69,NW,325,11.0,0.0,47,0.00,,,0.15,WeatherTracker,2013-05-12 23:15:00,
2013-05-12 19:20:00,59.2,38.4,29.69,NNW,328,3.0,0.0,46,0.00,,,0.15,WeatherTracker,2013-05-12 23:20:00,
2013-05-12 19:25:00,59.1,38.9,29.69,West,278,2.0,0.0,47,0.00,,,0.15,WeatherTracker,2013-05-12 23:25:00,
2013-05-12 19:30:00,59.0,37.7,29.69,NNW,346,5.0,0.0,45,0.00,,,0.15,WeatherTracker,2013-05-12 23:30:00,
2013-05-12 19:35:00,58.8,36.9,29.70,WNW,284,2.0,0.0,44,0.00,,,0.15,WeatherTracker,2013-05-12 23:35:00,
2013-05-12 19:40:00,58.6,36.8,29.70,NW,324,5.0,0.0,44,0.00,,,0.15,WeatherTracker,2013-05-12 23:40:00,
2013-05-12 19:50:00,58.1,35.7,29.71,North,5,2.0,0.0,43,0.00,,,0.15,WeatherTracker,2013-05-12 23:50:00,
2013-05-12 19:55:00,57.8,35.5,29.71,NNE,13,2.0,0.0,43,0.00,,,0.15,WeatherTracker,2013-05-12 23:55:00,
2013-05-12 20:05:00,57.3,34.4,29.72,NNW,334,3.0,0.0,42,0.00,,,0.15,WeatherTracker,2013-05-13 00:05:00,
2013-05-12 20:10:00,57.0,34.1,29.72,North,5,3.0,0.0,42,0.00,,,0.15,WeatherTracker,2013-05-13 00:10:00,
2013-05-12 20:15:00,56.8,33.4,29.72,NW,308,6.0,0.0,41,0.00,,,0.15,WeatherTracker,2013-05-13 00:15:00,
2013-05-12 20:20:00,56.6,33.2,29.72,WNW,295,6.0,0.0,41,0.00,,,0.15,WeatherTracker,2013-05-13 00:20:00,
2013-05-12 20:25:00,56.5,33.1,29.73,NNE,17,3.0,0.0,41,0.00,,,0.15,WeatherTracker,2013-05-13 00:25:00,
2013-05-12 20:35:00,56.1,32.7,29.73,NW,324,1.0,0.0,41,0.00,,,0.15,WeatherTracker,2013-05-13 00:35:00,
2013-05-12 20:45:00,55.8,33.6,29.73,WNW,297,1.0,0.0,43,0.00,,,0.15,WeatherTracker,2013-05-13 00:45:00,
2013-05-12 20:50:00,55.6,32.9,29.73,NW,321,1.0,0.0,42,0.00,,,0.15,WeatherTracker,2013-05-13 00:50:00,
2013-05-12 21:00:00,55.0,32.3,29.74,West,277,2.0,0.0,42,0.00,,,0.15,WeatherTracker,2013-05-13 01:00:00,
2013-05-12 21:10:00,54.8,32.2,29.74,NNW,337,2.0,0.0,42,0.00,,,0.15,WeatherTracker,2013-05-13 01:10:00,
2013-05-12 21:15:00,54.6,32.6,29.75,NNE,21,2.0,0.0,43,0.00,,,0.15,WeatherTracker,2013-05-13 01:15:00,
2013-05-12 21:20:00,54.4,32.4,29.75,NW,315,1.0,0.0,43,0.00,,,0.15,WeatherTracker,2013-05-13 01:20:00,
2013-05-12 21:30:00,54.0,32.0,29.75,NW,313,2.0,0.0,43,0.00,,,0.15,WeatherTracker,2013-05-13 01:30:00,
2013-05-12 21:35:00,53.9,31.9,29.75,NW,323,1.0,0.0,43,0.00,,,0.15,WeatherTracker,2013-05-13 01:35:00,
2013-05-12 21:45:00,53.5,33.2,29.75,WNW,299,0.0,0.0,46,0.00,,,0.15,WeatherTracker,2013-05-13 01:45:00,
2013-05-12 21:55:00,53.2,31.9,29.75,North,349,2.0,0.0,44,0.00,,,0.15,WeatherTracker,2013-05-13 01:55:00,
2013-05-12 22:00:00,53.0,31.7,29.76,West,279,3.0,0.0,44,0.00,,,0.15,WeatherTracker,2013-05-13 02:00:00,
2013-05-12 22:10:00,52.9,31.6,29.76,South,169,2.0,0.0,44,0.00,,,0.15,WeatherTracker,2013-05-13 02:10:00,
2013-05-12 22:20:00,52.9,31.6,29.77,NNW,338,2.0,0.0,44,0.00,,,0.15,WeatherTracker,2013-05-13 02:20:00,
2013-05-12 22:25:00,52.9,31.6,29.77,WNW,303,5.0,0.0,44,0.00,,,0.15,WeatherTracker,2013-05-13 02:25:00,
2013-05-12 22:30:00,52.9,31.6,29.78,ENE,59,1.0,0.0,44,0.00,,,0.15,WeatherTracker,2013-05-13 02:30:00,
2013-05-12 22:35:00,52.8,31.5,29.78,NW,315,2.0,0.0,44,0.00,,,0.15,WeatherTracker,2013-05-13 02:35:00,
2013-05-12 22:40:00,52.7,31.4,29.78,NW,313,3.0,0.0,44,0.00,,,0.15,WeatherTracker,2013-05-13 02:40:00,
2013-05-12 22:50:00,52.4,31.7,29.79,NNW,327,2.0,0.0,45,0.00,,,0.15,WeatherTracker,2013-05-13 02:50:00,
2013-05-12 23:00:00,52.3,32.1,29.79,WNW,301,2.0,0.0,46,0.00,,,0.15,WeatherTracker,2013-05-13 03:00:00,
2013-05-12 23:05:00,52.1,32.0,29.79,West,272,2.0,0.0,46,0.00,,,0.15,WeatherTracker,2013-05-13 03:05:00,
2013-05-12 23:10:00,52.0,31.9,29.80,NW,315,2.0,0.0,46,0.00,,,0.15,WeatherTracker,2013-05-13 03:10:00,
2013-05-12 23:15:00,51.8,32.2,29.80,NW,309,1.0,0.0,47,0.00,,,0.15,WeatherTracker,2013-05-13 03:15:00,
2013-05-12 23:20:00,51.7,32.6,29.80,NNW,331,1.0,0.0,48,0.00,,,0.15,WeatherTracker,2013-05-13 03:20:00,
2013-05-12 23:30:00,51.3,32.8,29.81,NW,323,5.0,0.0,49,0.00,,,0.15,WeatherTracker,2013-05-13 03:30:00,
2013-05-12 23:35:00,51.1,32.6,29.81,WNW,290,2.0,0.0,49,0.00,,,0.15,WeatherTracker,2013-05-13 03:35:00,
2013-05-12 23:40:00,50.9,32.9,29.81,NW,315,2.0,0.0,50,0.00,,,0.15,WeatherTracker,2013-05-13 03:40:00,
2013-05-12 23:45:00,50.8,32.8,29.82,NW,313,3.0,0.0,50,0.00,,,0.15,WeatherTracker,2013-05-13 03:45:00,
2013-05-12 23:50:00,50.6,32.7,29.82,NW,324,1.0,0.0,50,0.00,,,0.15,WeatherTracker,2013-05-13 03:50:00,